Temp
63 63 62 61 59 60 59 59 59 62 64 64 63 63 63 62 63 58 53 59 62 71 68 60 59 59 59 55 55 50 41 37 41 44 46 49 49 51 51 51 51 50 50 54 55
62 62 61 60 59 59 59 59 56 58 63 63 63 63 62 61 57 56 65 70 71 70 59 55 53 57 51 51 51 46 39 43 45 45 46 49 49 47 49 48 48 49 53 55 55
62 62 61 61 60 59 58 58 57 57 61 62 62 61 60 60 52 53 66 68 71 66 60 58 57 55 48 48 46 45 42 47 47 48 50 49 47 48 48 44 47 48 49 51 52
62 62 62 61 60 60 59 58 56 57 59 62 62 62 60 56 40 55 64 66 69 63 59 57 54 48 45 44 47 44 47 48 49 50 50 47 48 45 45 45 52 50 52 51 50
62 61 61 61 61 61 60 59 57 58 60 62 61 62 56 48 48 58 62 61 61 60 56 54 50 48 44 45 46 44 44 48 48 49 47 50 44 42 43 49 49 52 53 49 48
61 61 61 61 61 61 61 61 61 60 61 62 61 59 51 42 55 56 58 57 59 57 54 54 51 51 46 43 43 44 45 45 47 47 46 45 42 44 45 48 50 51 49 48 48
60 60 60 60 60 60 61 60 60 61 61 62 61 56 50 46 56 56 57 55 57 57 54 54 55 51 47 43 46 45 42 43 44 46 43 43 40 42 45 48 49 49 48 48 48
59 59 59 59 59 60 60 60 60 61 61 62 61 55 45 55 56 55 56 57 57 58 56 55 55 50 46 45 43 40 38 35 41 44 44 42 38 43 46 47 45 46 47 47 48
58 58 58 59 58 58 59 60 60 60 61 61 52 51 43 57 51 53 55 52 54 56 56 60 52 44 44 36 30 34 26 33 36 44 43 40 36 42 44 46 45 44 45 46 45
58 58 58 58 58 58 59 59 60 58 55 58 54 44 48 45 50 52 56 55 52 51 51 48 42 37 36 33 24 30 29 33 32 39 40 36 37 42 44 44 44 42 42 44 45
58 58 59 58 57 58 51 46 43 43 47 43 44 45 46 50 55 51 53 52 52 47 38 40 34 28 32 34 34 35 33 33 34 41 36 36 36 40 44 42 42 41 40 42 44
57 58 58 58 57 56 48 42 43 47 38 46 47 48 50 49 46 49 55 47 45 37 39 35 30 36 41 41 38 36 32 31 36 41 37 36 36 41 42 42 42 43 41 41 42
57 57 57 57 56 50 45 44 49 52 37 40 45 44 44 49 44 45 50 48 42 38 36 31 34 41 40 36 37 32 32 31 31 37 37 34 34 37 41 41 42 42 41 42 42
57 57 57 57 50 45 44 50 49 48 28 32 39 43 47 47 41 52 52 46 43 36 37 35 40 39 37 35 35 31 38 38 37 30 23 33 24 33 36 40 40 40 39 40 41
57 57 56 55 44 42 46 49 48 44 14 36 39 50 48 43 43 46 55 48 40 38 37 32 34 35 35 35 39 34 40 37 35 30 24 28 21 32 34 37 39 40 39 39 40
57 57 56 49 45 46 48 46 44 26 19 33 40 40 41 44 45 48 48 50 47 40 39 36 41 39 38 41 41 42 37 34 30 28 19 25 24 29 33 37 38 39 39 40 39
57 57 53 51 44 48 47 41 26 21 34 33 35 39 40 40 43 43 41 37 33 27 24 34 35 40 43 37 40 37 29 15 18 17 20 28 25 32 39 39 39 40 40 39 40
56 54 51 50 47 47 44 33 23 33 33 39 39 39 36 41 41 42 37 34 38 34 25 20 20 35 41 36 34 33 31 18 16 16 19 29 24 33 38 37 38 39 39 39 39
54 44 44 46 49 47 39 24 27 32 37 36 40 35 34 40 39 38 37 37 37 36 29 25 25 39 41 43 40 32 26 33 23 20 25 21 29 37 38 39 38 38 38 38 38
43 42 43 47 46 42 34 30 33 40 41 39 32 37 30 32 33 34 34 39 40 41 38 34 27 37 40 43 41 36 39 26 23 16 18 20 23 27 33 36 39 38 38 38 39
43 40 45 46 44 39 26 29 38 45 45 40 36 34 34 34 34 32 31 37 41 40 40 36 33 33 39 34 33 34 31 31 29 26 19 19 27 34 36 39 41 41 40 39 39
41 36 45 44 36 31 28 37 45 41 43 42 40 39 35 36 34 32 32 36 42 42 36 36 32 26 32 37 39 36 33 32 25 24 25 23 27 37 38 39 39 40 40 39 40
40 39 45 44 30 27 36 40 41 41 40 41 39 41 40 36 33 34 36 41 44 40 37 38 31 21 28 33 34 33 34 34 31 29 24 21 29 39 36 38 39 38 39 39 39
40 34 40 39 36 34 35 36 37 43 42 43 41 42 38 35 37 34 35 41 42 41 48 43 32 30 25 30 32 30 32 33 33 22 24 26 28 36 39 39 41 40 39 39 39
38 34 36 31 37 35 35 38 36 38 42 43 39 40 36 31 32 32 35 36 41 45 38 37 29 25 30 32 33 33 33 32 30 33 28 27 28 37 38 40 42 42 40 39 39
39 38 35 35 36 34 37 34 36 37 37 37 36 38 37 32 33 32 35 33 33 35 33 35 29 28 24 31 30 29 31 32 33 35 34 36 35 47 49 43 38 40 40 40 40
37 38 40 37 34 34 35 37 39 39 39 41 39 36 34 37 37 36 37 37 36 35 33 32 29 26 23 27 28 26 29 31 32 32 36 32 41 42 42 41 40 42 42 41 42
MSLP
1012.49 1012.07 1011.85 1011.79 1011.90 1012.00 1011.95 1012.03 1012.54 1012.61 1012.51 1012.51 1012.49 1012.54 1012.65 1012.94 1013.29 1013.72 1013.72 1013.41 1013.19 1012.97 1013.15 1013.38 1013.60 1013.60 1013.83 1014.49 1014.88 1015.38 1016.82 1018.08 1017.84 1017.53 1017.31 1017.17 1017.26 1017.43 1017.45 1017.57 1017.93 1018.33 1018.63 1018.87 1018.93
1012.94 1012.48 1012.30 1012.19 1012.10 1012.17 1012.22 1012.09 1012.57 1013.00 1012.54 1012.51 1012.47 1012.27 1012.42 1012.97 1013.03 1013.40 1013.44 1012.91 1012.82 1012.96 1013.26 1013.45 1013.79 1013.85 1014.50 1014.94 1015.42 1015.93 1017.11 1017.54 1017.42 1017.19 1017.20 1017.30 1017.42 1017.61 1017.75 1018.03 1018.63 1018.80 1018.98 1019.20 1019.40
1013.34 1012.87 1012.63 1012.53 1012.46 1012.33 1012.42 1012.61 1012.43 1013.08 1012.54 1012.56 1012.69 1012.69 1012.60 1013.37 1013.37 1013.77 1013.45 1013.12 1012.84 1013.08 1013.31 1013.49 1013.88 1014.12 1014.83 1015.32 1015.91 1016.52 1017.09 1017.50 1017.63 1017.42 1017.23 1017.55 1017.87 1017.95 1018.03 1018.48 1018.59 1018.94 1019.26 1019.52 1020.00
1013.80 1013.37 1013.16 1012.88 1012.75 1012.77 1012.89 1012.90 1012.87 1012.93 1012.89 1012.47 1012.44 1012.62 1012.98 1013.40 1014.34 1014.20 1013.70 1013.44 1012.98 1013.06 1013.35 1013.57 1014.07 1014.67 1015.46 1015.97 1016.28 1016.89 1017.68 1017.58 1017.75 1017.87 1017.63 1018.00 1018.23 1018.37 1018.49 1018.59 1018.57 1018.92 1019.29 1019.78 1020.40
1014.32 1013.94 1013.68 1013.43 1013.03 1012.87 1012.80 1012.86 1013.01 1013.21 1012.96 1012.88 1012.58 1012.33 1012.77 1014.19 1014.66 1014.22 1013.79 1013.49 1013.15 1013.18 1013.36 1013.71 1014.24 1014.98 1015.89 1016.40 1016.81 1017.33 1018.11 1018.27 1018.29 1018.23 1018.37 1018.21 1018.78 1018.96 1018.74 1018.76 1018.84 1019.10 1019.67 1020.35 1020.72
1014.85 1014.52 1014.09 1013.73 1013.46 1013.02 1012.94 1013.00 1013.04 1013.01 1012.97 1013.11 1013.03 1013.12 1013.78 1014.72 1015.10 1014.88 1014.08 1013.72 1013.37 1013.30 1013.57 1013.73 1014.23 1014.86 1016.10 1017.06 1017.46 1018.11 1018.55 1018.88 1018.83 1018.84 1018.88 1018.77 1019.06 1019.12 1018.81 1018.79 1019.15 1019.57 1020.14 1020.66 1021.04
1015.30 1015.13 1014.81 1014.49 1014.06 1013.76 1013.49 1013.35 1013.24 1013.15 1012.97 1013.03 1013.18 1013.38 1014.49 1015.64 1015.40 1014.20 1014.27 1014.21 1013.81 1013.51 1013.80 1014.07 1014.27 1015.03 1016.38 1017.58 1018.27 1018.60 1019.25 1019.40 1019.49 1019.36 1019.53 1019.27 1019.46 1019.16 1018.93 1019.03 1019.60 1020.02 1020.50 1021.09 1021.43
1015.80 1015.63 1015.55 1015.22 1014.90 1014.48 1014.08 1013.68 1013.63 1013.42 1013.28 1012.82 1013.08 1013.18 1014.88 1015.49 1015.15 1015.16 1014.87 1014.26 1013.89 1013.62 1013.85 1014.41 1014.51 1015.64 1017.04 1017.99 1018.66 1019.43 1019.89 1020.27 1020.16 1019.83 1019.75 1019.66 1019.39 1019.03 1019.10 1019.43 1019.97 1020.25 1020.77 1021.25 1021.50
1016.26 1015.95 1015.91 1015.69 1015.30 1014.98 1014.55 1014.21 1014.02 1013.70 1013.56 1013.31 1013.35 1014.22 1016.11 1015.87 1016.06 1016.05 1015.98 1015.61 1014.54 1014.16 1014.27 1014.54 1015.18 1017.14 1017.87 1019.04 1020.20 1020.74 1020.83 1020.74 1020.52 1020.25 1020.14 1020.13 1019.67 1019.35 1019.47 1019.78 1020.28 1020.59 1021.03 1021.33 1021.65
1016.56 1016.29 1015.98 1016.05 1015.82 1015.58 1015.29 1014.87 1014.43 1013.99 1013.88 1013.84 1014.74 1015.43 1016.28 1016.44 1016.77 1016.78 1016.05 1015.78 1015.19 1014.78 1015.14 1015.76 1017.08 1018.25 1019.34 1020.04 1021.06 1021.14 1021.12 1021.01 1020.68 1020.65 1020.55 1020.50 1020.14 1019.88 1019.82 1020.21 1020.53 1020.76 1021.06 1021.39 1021.57
1016.82 1016.59 1016.25 1016.28 1016.28 1015.96 1015.62 1015.53 1015.73 1016.25 1016.52 1016.78 1016.80 1017.08 1017.27 1017.41 1017.18 1017.36 1016.61 1016.04 1015.60 1015.94 1017.22 1017.70 1018.86 1019.74 1020.21 1020.26 1020.34 1020.52 1020.69 1021.08 1021.15 1020.80 1020.99 1020.98 1020.61 1019.98 1019.80 1020.25 1020.41 1020.63 1020.89 1021.18 1021.35
1017.17 1017.04 1016.88 1016.69 1016.48 1016.16 1016.22 1017.06 1017.89 1017.83 1018.01 1018.02 1017.87 1017.64 1017.98 1017.77 1017.63 1017.71 1017.22 1016.82 1016.74 1017.74 1018.07 1019.02 1020.23 1020.38 1020.30 1020.23 1020.41 1020.78 1021.27 1021.67 1021.53 1021.25 1021.45 1021.36 1020.61 1019.57 1019.47 1019.26 1019.52 1019.93 1020.28 1020.67 1021.25
1017.53 1017.35 1017.14 1017.07 1016.80 1016.84 1017.56 1018.14 1017.95 1017.71 1018.56 1019.24 1019.22 1018.79 1018.83 1018.33 1018.22 1018.03 1017.79 1017.46 1017.84 1018.51 1018.99 1019.87 1020.80 1020.38 1020.27 1020.64 1020.77 1021.58 1021.75 1021.94 1021.95 1021.91 1022.10 1022.06 1020.63 1019.49 1018.91 1018.85 1019.00 1019.36 1019.73 1020.34 1020.88
1017.66 1017.72 1017.46 1017.21 1017.32 1017.93 1017.90 1018.10 1018.11 1018.15 1019.11 1020.43 1019.76 1019.74 1019.06 1018.42 1018.37 1017.67 1017.89 1018.13 1018.26 1019.31 1019.94 1020.80 1020.83 1020.63 1020.77 1021.11 1021.26 1021.80 1021.95 1022.16 1022.41 1022.79 1023.44 1023.13 1021.92 1019.81 1019.02 1018.83 1018.95 1019.42 1019.91 1020.38 1020.99
1017.73 1017.60 1017.62 1017.47 1018.00 1018.29 1018.57 1018.28 1018.28 1018.40 1019.66 1021.06 1020.26 1019.95 1019.19 1019.16 1019.57 1019.23 1017.80 1017.89 1018.75 1019.70 1020.20 1021.79 1021.32 1021.06 1021.15 1021.44 1021.33 1022.06 1022.21 1022.76 1023.25 1023.97 1024.41 1023.99 1023.56 1019.68 1019.31 1018.83 1018.71 1019.21 1019.87 1020.39 1020.95
1017.81 1017.76 1017.61 1017.85 1018.22 1018.39 1018.35 1018.28 1018.39 1019.09 1020.67 1020.81 1020.52 1020.04 1019.42 1018.86 1018.72 1018.17 1018.03 1018.10 1018.89 1019.98 1020.69 1021.56 1021.30 1021.20 1021.21 1021.38 1021.43 1021.97 1022.78 1023.65 1024.44 1025.07 1025.30 1024.52 1023.93 1020.43 1019.22 1018.23 1018.10 1018.63 1019.45 1020.16 1020.80
1018.00 1017.76 1017.77 1017.94 1018.32 1018.23 1018.37 1018.63 1019.11 1019.85 1021.55 1021.15 1020.57 1020.12 1019.32 1019.05 1018.49 1018.45 1018.64 1019.09 1019.65 1020.75 1021.96 1022.06 1022.04 1021.49 1021.13 1021.47 1021.88 1022.50 1023.69 1024.93 1025.84 1026.11 1025.63 1024.71 1024.06 1019.96 1018.29 1017.89 1018.03 1018.55 1019.22 1019.86 1020.42
1018.24 1018.19 1018.19 1018.19 1018.24 1018.13 1018.45 1018.85 1019.70 1021.03 1020.72 1020.70 1020.30 1019.81 1019.52 1019.19 1019.11 1018.95 1019.13 1019.54 1019.88 1020.56 1022.42 1022.87 1022.93 1021.92 1021.47 1021.55 1022.04 1023.03 1023.94 1025.23 1026.47 1026.97 1025.91 1024.80 1022.96 1018.92 1017.88 1017.78 1018.04 1018.39 1018.83 1019.53 1020.19
1018.32 1018.74 1018.72 1018.60 1018.28 1018.21 1018.71 1019.32 1020.64 1020.60 1020.43 1020.29 1019.86 1019.63 1019.38 1019.10 1019.15 1019.46 1019.60 1019.84 1020.13 1020.44 1021.32 1022.36 1022.51 1021.92 1021.59 1021.40 1021.86 1023.13 1023.90 1024.70 1025.83 1026.71 1026.40 1024.02 1021.56 1018.50 1017.74 1017.83 1018.12 1018.55 1019.11 1019.38 1019.76
1018.66 1019.06 1019.04 1018.71 1018.60 1018.76 1018.99 1019.96 1020.00 1019.63 1019.48 1019.49 1019.33 1019.22 1019.40 1019.34 1019.39 1019.45 1019.74 1019.88 1020.02 1020.17 1020.50 1021.73 1022.30 1021.95 1021.53 1021.48 1021.91 1022.38 1023.45 1024.59 1025.59 1026.42 1026.02 1023.77 1022.03 1019.21 1018.01 1017.71 1017.95 1018.36 1018.66 1019.08 1019.59
1018.88 1019.14 1019.02 1018.81 1018.79 1018.93 1020.14 1019.97 1019.39 1018.85 1018.71 1018.77 1018.58 1018.60 1018.89 1019.09 1019.21 1019.47 1019.83 1019.93 1019.75 1020.05 1020.23 1021.01 1021.59 1022.24 1021.82 1021.83 1022.09 1022.80 1023.31 1024.27 1025.14 1025.67 1025.56 1024.43 1020.80 1018.37 1017.87 1017.56 1017.66 1017.93 1018.30 1018.63 1019.00
1018.93 1019.33 1019.04 1018.95 1019.22 1019.99 1020.14 1019.35 1018.67 1018.52 1018.23 1018.10 1018.06 1018.20 1018.51 1018.81 1019.20 1019.48 1019.64 1019.54 1019.43 1019.66 1020.32 1020.81 1021.66 1022.26 1022.08 1021.85 1021.94 1022.33 1023.01 1023.84 1024.96 1025.49 1025.34 1024.60 1020.59 1017.86 1017.67 1017.54 1017.65 1017.70 1017.87 1018.13 1018.36
1019.20 1019.38 1018.87 1018.83 1019.93 1020.40 1019.61 1018.97 1018.45 1018.17 1018.03 1017.85 1017.91 1017.88 1018.10 1018.52 1019.11 1019.44 1019.58 1019.55 1019.59 1019.86 1020.31 1020.82 1021.76 1022.49 1022.61 1022.59 1022.38 1022.51 1022.77 1023.28 1024.04 1024.40 1024.42 1023.95 1019.75 1017.79 1017.44 1017.49 1017.52 1017.83 1017.86 1017.98 1018.17
1019.30 1019.77 1019.49 1019.51 1020.19 1020.13 1019.70 1019.05 1018.54 1018.07 1017.94 1017.81 1017.87 1017.94 1018.20 1018.64 1018.86 1019.40 1019.67 1019.82 1019.91 1020.14 1020.47 1020.84 1021.84 1022.26 1022.31 1022.05 1022.08 1022.49 1022.54 1022.88 1023.25 1024.05 1023.40 1021.61 1019.12 1017.51 1017.26 1017.25 1017.02 1017.23 1017.29 1017.43 1017.57
1019.58 1020.61 1020.44 1020.45 1020.34 1020.02 1019.63 1019.18 1018.79 1018.48 1018.17 1018.07 1018.09 1018.23 1018.48 1018.84 1019.21 1019.63 1019.99 1020.26 1020.43 1020.64 1020.97 1021.45 1022.30 1022.67 1022.46 1022.24 1022.15 1021.85 1021.86 1022.14 1022.34 1021.91 1021.94 1019.71 1018.99 1017.18 1016.81 1016.66 1016.46 1016.29 1016.35 1016.57 1016.43
1020.16 1020.48 1020.48 1020.27 1020.05 1019.70 1019.55 1019.35 1018.99 1018.82 1018.64 1018.52 1018.50 1018.66 1018.83 1019.19 1019.57 1019.87 1020.20 1020.62 1020.81 1021.28 1021.61 1022.21 1022.87 1023.25 1022.83 1022.10 1022.00 1021.71 1021.14 1021.18 1021.36 1021.19 1020.32 1019.78 1017.86 1016.27 1015.63 1015.90 1015.98 1015.89 1015.76 1015.75 1015.37
1020.20 1020.15 1020.03 1020.53 1020.18 1019.86 1019.41 1018.99 1018.86 1018.78 1018.78 1018.56 1018.67 1018.97 1019.24 1019.55 1019.80 1020.18 1020.45 1020.90 1021.08 1021.55 1022.26 1022.78 1023.29 1023.93 1023.30 1022.39 1021.80 1020.84 1018.80 1019.35 1019.46 1019.14 1018.85 1018.83 1015.80 1015.73 1015.44 1015.49 1015.25 1014.90 1014.90 1014.79 1014.45
Wind_Speed
15 12 9 6 1 10 11 13 9 10 8 6 6 9 12 13 13 4 2 4 2 3 3 1 0 1 3 3 3 3 6 4 7 7 5 2 4 2 0 5 4 4 3 3 2
16 15 10 9 4 6 4 10 4 12 5 2 2 7 12 9 2 8 5 3 1 2 3 3 4 3 4 3 3 5 4 7 2 4 5 4 3 2 3 3 4 4 4 3 5
16 16 14 8 7 4 6 3 7 7 3 2 3 3 5 7 2 4 12 10 3 4 3 3 3 2 5 3 3 2 4 6 1 2 4 5 3 1 7 1 3 5 3 3 5
15 16 14 12 7 4 3 6 5 7 2 7 7 5 11 4 6 4 14 11 7 2 2 5 4 4 4 5 2 8 4 2 4 2 4 4 3 4 1 2 5 4 4 4 6
15 15 15 13 10 5 4 6 7 4 3 8 7 7 6 4 4 8 16 14 5 0 3 5 4 5 6 5 2 6 3 5 5 7 6 5 4 1 3 5 2 3 6 7 7
15 14 15 15 12 10 8 6 8 2 7 8 6 6 6 6 5 8 12 9 4 2 2 3 5 4 7 5 5 3 6 4 6 5 5 3 1 3 1 2 5 4 6 6 7
13 14 12 13 12 11 10 10 8 8 8 7 7 4 12 4 2 8 11 6 5 0 5 2 6 6 5 6 3 4 7 5 7 5 3 2 2 4 2 3 7 6 6 6 5
15 14 13 12 11 9 9 10 10 8 8 8 9 6 6 4 5 5 12 6 9 4 7 5 9 9 5 4 7 6 6 4 4 4 3 2 6 1 4 6 6 6 5 5 3
12 12 11 11 10 10 12 12 9 10 12 5 9 6 4 5 5 6 6 7 7 4 7 4 7 5 6 6 7 7 4 3 1 3 3 2 4 2 2 4 6 5 6 6 4
11 12 12 9 11 14 10 11 17 14 10 2 4 5 7 5 4 5 6 7 4 3 7 10 7 5 5 6 5 5 6 3 3 2 3 3 8 6 5 4 9 8 6 7 7
10 12 12 9 14 14 8 5 7 8 14 11 7 6 3 6 3 4 8 10 5 10 5 5 9 4 3 2 3 7 6 6 0 1 1 5 7 11 9 6 10 9 7 9 7
8 10 11 10 14 7 4 6 2 2 6 15 14 9 6 5 6 5 6 6 6 5 2 9 5 1 3 5 7 7 6 3 2 1 1 5 13 13 6 7 8 10 9 9 6
6 9 11 10 7 8 5 3 3 4 5 6 5 5 5 6 5 2 5 5 6 6 6 7 2 2 4 6 8 5 6 3 4 3 2 7 9 4 3 3 2 3 4 6 8
7 8 11 9 5 1 3 2 3 1 6 9 7 5 5 7 8 7 3 1 6 6 5 7 4 5 6 6 3 4 2 3 4 5 2 4 6 6 3 6 3 3 5 7 7
2 3 7 9 1 3 2 1 3 2 7 6 5 5 6 3 7 5 3 4 5 3 5 3 3 6 7 1 2 3 3 4 3 4 4 1 4 10 3 6 7 8 8 7 7
1 2 5 3 2 2 1 3 4 8 5 4 4 4 3 4 1 2 2 5 3 9 8 4 1 3 3 3 4 4 5 7 5 3 3 1 4 8 4 6 1 3 8 8 7
3 3 2 2 0 1 1 3 6 7 2 5 4 3 1 4 5 4 4 5 4 6 5 6 4 3 3 5 4 6 6 4 6 5 6 2 1 13 7 5 3 3 7 8 8
3 5 5 1 1 1 3 5 10 4 4 1 0 2 4 5 5 6 3 4 6 6 5 5 5 1 1 1 5 3 5 6 6 2 5 2 7 8 3 1 1 1 3 6 7
3 3 2 3 3 2 4 8 4 4 5 5 3 6 5 4 4 4 3 3 1 2 5 5 5 2 2 1 3 2 1 3 6 2 2 4 9 10 4 6 4 6 5 8 8
3 2 3 2 2 4 7 4 3 4 5 2 3 2 3 1 3 3 2 2 2 1 3 6 5 1 1 3 3 2 5 3 3 1 4 6 7 8 4 3 6 8 9 8 7
3 3 2 2 3 5 4 2 2 3 4 5 2 3 3 3 2 2 0 1 1 2 3 4 4 2 2 3 6 2 0 4 3 3 4 4 8 6 5 4 6 7 7 8 8
2 3 1 1 5 2 2 1 1 1 1 2 1 3 3 3 3 2 3 2 2 3 3 0 5 4 6 1 3 4 5 5 4 3 1 2 11 2 5 4 4 7 6 5 6
3 2 1 2 4 3 2 1 1 1 2 2 2 0 1 3 4 2 3 1 3 2 5 4 1 3 6 4 2 4 5 5 4 3 6 5 9 1 4 6 6 8 8 7 6
3 3 5 5 1 3 3 2 3 3 2 2 2 2 2 2 3 5 3 2 1 2 5 3 3 5 7 4 4 4 5 5 6 3 4 9 10 8 8 8 8 8 9 9 8
4 2 2 1 3 3 2 3 3 5 4 5 3 4 2 2 2 2 2 2 4 3 3 3 1 1 5 8 4 5 6 9 11 10 9 5 10 10 7 8 10 8 7 8 10
2 4 2 2 1 2 3 1 2 1 2 3 3 2 3 2 1 3 4 3 3 3 2 3 1 2 5 2 6 6 10 11 10 12 16 16 28 20 22 9 7 10 10 10 11
0 1 3 2 1 4 4 5 4 3 1 3 3 2 1 1 2 3 4 4 2 6 4 2 3 3 6 3 6 7 10 15 6 5 12 15 20 8 11 9 9 11 9 10 11
Wind_Direction
12 9 4 332 317 109 94 70 4 248 226 255 266 264 204 210 217 154 136 241 233 149 88 60 205 161 68 81 63 108 68 146 174 167 168 171 119 5 76 95 60 19 98 129 104
28 24 18 27 78 173 115 117 8 314 219 231 306 300 189 177 248 105 354 22 32 69 80 110 142 115 56 76 33 80 97 182 174 151 149 119 107 118 104 88 60 54 59 92 44
31 33 32 17 37 72 95 143 149 288 262 42 33 137 190 172 79 85 3 6 64 60 105 113 114 86 73 54 34 71 149 160 70 123 104 117 92 131 123 141 164 161 152 103 61
28 33 30 30 38 121 137 87 79 271 289 14 7 184 178 93 162 326 341 353 342 59 161 116 86 66 85 99 40 95 47 85 143 32 90 94 106 84 92 162 138 138 122 103 94
29 27 28 33 25 49 183 156 186 205 49 43 35 76 59 121 344 329 341 332 313 141 132 131 95 122 113 102 65 71 121 53 79 75 68 98 54 17 254 204 237 108 93 115 113
27 26 26 30 37 38 68 95 132 59 44 57 62 104 80 74 331 333 346 330 9 80 81 60 132 123 90 66 60 85 87 90 38 49 48 77 51 15 274 210 222 140 105 113 123
29 29 25 29 24 51 67 79 66 50 33 50 66 107 75 61 342 343 347 306 309 335 102 54 122 76 130 101 150 88 73 37 19 13 48 52 307 236 236 117 129 125 126 116 108
24 24 20 16 20 42 51 63 64 45 28 24 38 63 63 11 20 8 332 329 359 30 95 103 87 98 62 117 36 67 56 91 340 3 348 63 258 221 196 155 155 157 155 155 142
27 18 11 13 12 50 48 54 36 29 18 20 33 73 77 321 64 324 334 328 314 35 47 70 67 76 41 75 40 17 142 109 343 8 341 67 264 284 156 181 199 180 191 185 171
24 16 352 21 24 15 349 342 44 28 354 34 88 67 13 30 17 334 321 317 2 16 35 40 53 74 49 61 183 170 109 84 141 340 4 316 270 277 260 214 237 225 211 200 202
21 32 60 35 10 8 10 6 16 25 31 41 25 72 28 336 130 29 327 323 27 49 76 21 69 75 70 81 119 121 107 115 85 68 27 266 275 270 262 230 249 242 216 210 199
16 33 40 23 16 19 49 71 31 139 49 20 26 40 59 327 72 6 345 39 52 76 58 35 75 357 75 80 86 71 96 47 4 49 51 333 284 261 236 236 214 227 219 202 169
25 7 2 7 9 32 62 54 332 14 75 15 4 354 329 343 59 334 11 338 70 56 47 100 155 25 85 45 79 44 101 140 157 339 40 336 294 286 227 228 257 229 188 162 178
59 5 356 340 42 300 23 137 1 28 82 0 15 34 341 336 35 344 297 317 46 108 78 71 351 93 71 70 82 87 -0 95 59 59 236 24 275 291 257 270 233 208 181 172 177
76 69 47 62 81 49 1 46 329 73 68 344 356 321 279 42 143 260 238 31 78 66 93 268 47 75 68 40 71 160 70 57 67 77 38 7 72 268 350 280 242 215 214 204 193
73 331 356 34 61 209 165 0 44 44 44 27 22 14 77 344 150 294 62 62 153 64 50 87 310 61 120 64 70 119 65 43 51 59 22 323 121 281 213 217 256 205 211 200 200
317 19 52 114 268 153 34 43 42 65 284 12 39 34 87 14 39 56 46 37 87 84 13 4 351 331 90 73 45 66 56 355 357 10 224 321 61 247 257 235 224 241 233 201 202
340 10 350 30 58 24 54 59 63 12 38 341 11 235 74 17 44 10 40 44 40 77 96 120 335 4 356 96 153 79 131 150 208 221 273 16 236 252 218 58 199 191 225 192 208
54 348 8 328 328 49 63 52 139 184 159 128 18 51 16 40 103 83 357 53 51 105 118 119 349 297 216 122 120 167 155 154 102 -0 322 249 286 296 231 246 241 237 213 219 219
89 26 326 338 15 56 68 105 85 151 134 119 119 196 110 32 77 72 56 307 105 126 160 194 94 241 201 130 59 138 151 73 3 84 275 285 273 245 315 249 226 242 239 242 231
50 56 278 1 59 55 92 116 122 193 169 157 168 91 117 134 97 79 113 248 185 141 94 143 105 207 105 192 180 120 170 62 117 138 181 316 273 217 235 228 215 244 244 237 228
90 24 297 123 51 46 110 159 217 140 158 161 124 113 135 154 97 114 156 210 200 156 117 148 126 169 202 208 173 163 185 152 131 234 136 127 274 290 271 260 268 273 282 261 234
105 258 322 91 86 342 314 59 122 79 37 114 110 96 162 128 107 141 154 249 175 109 159 179 40 62 355 7 30 201 194 160 128 105 207 146 261 309 308 298 276 267 270 258 241
85 32 338 51 113 101 15 33 36 18 29 57 110 81 97 74 25 154 143 160 116 108 104 104 145 172 182 190 137 207 193 184 145 147 200 233 285 279 291 280 283 267 252 251 241
28 223 183 312 5 98 52 1 16 7 5 32 35 48 63 97 59 90 93 60 36 67 56 87 218 156 256 238 230 226 203 187 201 199 200 220 235 268 249 256 266 261 267 256 250
127 131 4 151 289 85 7 46 117 351 35 354 67 30 39 79 174 233 138 173 200 26 90 12 243 71 285 250 213 257 234 223 222 238 257 269 279 275 279 271 266 260 262 260 256
233 346 99 324 98 108 211 177 183 177 206 171 152 94 6 2 93 103 109 103 147 155 156 113 110 56 271 354 330 297 228 197 194 213 221 231 248 281 284 271 259 261 254 253 258